| time (UTC) | temp C | wind direction | speed KPH | gust KPH | rain 1hr cm | rain 24hr cm | rain mn cm | humidity % | barometer mb |
| 20260510130533 | 9 | 0.0 | 0.0 | 0.00 | 0.00 | 0.00 | 99 | ||
| 20260510130524 | 9 | 165 | 3.2 | 8.0 | 0.00 | 0.00 | 0.00 | 92 | |
| 20260510125532 | 9 | 170 | 3.2 | 4.8 | 0.00 | 0.00 | 0.00 | 93 | |
| 20260510125522 | 9 | 0.0 | 0.0 | 0.00 | 0.00 | 0.00 | 99 | ||
| 20260510124531 | 10 | 0.0 | 0.0 | 0.00 | 0.00 | 0.00 | 99 | ||
| 20260510124525 | 10 | 176 | 3.2 | 4.8 | 0.00 | 0.00 | 0.00 | 93 | |
| 20260510123531 | 10 | 163 | 3.2 | 8.0 | 0.00 | 0.00 | 0.00 | 93 | |
| 20260510123520 | 10 | 0.0 | 0.0 | 0.00 | 0.00 | 0.00 | 99 | ||
| 20260510122528 | 10 | 0.0 | 0.0 | 0.00 | 0.00 | 0.00 | 99 | ||
| 20260510122524 | 9 | 169 | 3.2 | 4.8 | 0.00 | 0.00 | 0.00 | 93 | |
| 20260510121537 | 10 | 0.0 | 0.0 | 0.00 | 0.00 | 0.00 | 99 | ||
| 20260510121533 | 10 | 167 | 3.2 | 9.7 | 0.00 | 0.00 | 0.00 | 93 | |
| 20260510120525 | 10 | 0.0 | 0.0 | 0.00 | 0.00 | 0.00 | 99 | ||
| 20260510115532 | 10 | 170 | 3.2 | 4.8 | 0.00 | 0.00 | 0.00 | 93 | |
| 20260510114545 | 10 | 157 | 3.2 | 8.0 | 0.00 | 0.00 | 0.00 | 93 | |
| 20260510113532 | 10 | 160 | 3.2 | 4.8 | 0.00 | 0.00 | 0.00 | 93 | |
| 20260510112544 | 10 | 160 | 3.2 | 4.8 | 0.00 | 0.00 | 0.00 | 92 | |
| 20260510111533 | 10 | 158 | 3.2 | 8.0 | 0.00 | 0.00 | 0.00 | 92 | |
| 20260510111031 | 10 | 0.0 | 0.0 | 0.00 | 0.00 | 0.00 | 99 | ||
| 20260510110524 | 10 | 162 | 3.2 | 8.0 | 0.00 | 0.00 | 0.00 | 91 | |
| 20260510110020 | 10 | 0.0 | 0.0 | 0.00 | 0.00 | 0.00 | 99 | ||
| 20260510105532 | 10 | 163 | 4.8 | 11.3 | 0.00 | 0.00 | 0.00 | 91 | |
| 20260510105028 | 10 | 0.0 | 0.0 | 0.00 | 0.00 | 0.00 | 99 | ||
| 20260510104524 | 10 | 164 | 4.8 | 8.0 | 0.00 | 0.00 | 0.00 | 91 | |
| 20260510104036 | 10 | 0.0 | 0.0 | 0.00 | 0.00 | 0.00 | 99 | ||
| 20260510103532 | 10 | 162 | 3.2 | 9.7 | 0.00 | 0.00 | 0.00 | 91 | |
| 20260510103025 | 10 | 0.0 | 0.0 | 0.00 | 0.00 | 0.00 | 99 | ||
| 20260510102525 | 10 | 148 | 3.2 | 8.0 | 0.00 | 0.00 | 0.00 | 91 | |
| 20260510102034 | 10 | 0.0 | 0.0 | 0.00 | 0.00 | 0.00 | 99 | ||
| 20260510101532 | 10 | 158 | 3.2 | 8.0 | 0.00 | 0.00 | 0.00 | 90 | |
| 20260510100524 | 10 | 162 | 3.2 | 8.0 | 0.00 | 0.00 | 0.00 | 90 | |
| 20260510095532 | 10 | 180 | 1.6 | 4.8 | 0.00 | 0.00 | 0.00 | 89 | |
| 20260510094524 | 10 | 179 | 3.2 | 4.8 | 0.00 | 0.00 | 0.00 | 88 | |
| 20260510093552 | 11 | 155 | 3.2 | 8.0 | 0.00 | 0.00 | 0.00 | 87 | |
| 20260510092525 | 11 | 137 | 4.8 | 12.9 | 0.00 | 0.00 | 0.00 | 87 | |
| 20260510091532 | 11 | 152 | 4.8 | 11.3 | 0.00 | 0.00 | 0.00 | 86 | |
| 20260510090524 | 11 | 145 | 4.8 | 11.3 | 0.00 | 0.00 | 0.00 | 86 | |
| 20260510085552 | 11 | 148 | 4.8 | 11.3 | 0.00 | 0.00 | 0.00 | 85 | |
| 20260510085031 | 11 | 0.0 | 0.0 | 0.00 | 0.00 | 0.00 | 99 | ||
| 20260510084524 | 11 | 142 | 4.8 | 8.0 | 0.00 | 0.00 | 0.00 | 85 | |
| 20260510083532 | 11 | 137 | 4.8 | 9.7 | 0.00 | 0.00 | 0.00 | 84 | |
| 20260510082524 | 12 | 128 | 6.4 | 12.9 | 0.00 | 0.00 | 0.00 | 84 | |
| 20260510081532 | 12 | 137 | 4.8 | 12.9 | 0.00 | 0.00 | 0.00 | 83 | |
| 20260510080525 | 12 | 118 | 4.8 | 12.9 | 0.00 | 0.00 | 0.00 | 83 | |
| 20260510075553 | 12 | 119 | 4.8 | 11.3 | 0.00 | 0.00 | 0.00 | 81 | |
| 20260510074526 | 12 | 0.0 | 0.0 | 0.00 | 0.00 | 0.00 | 99 | ||
| 20260510074524 | 12 | 138 | 4.8 | 14.5 | 0.00 | 0.00 | 0.00 | 80 | |
| 20260510073533 | 13 | 0.0 | 0.0 | 0.00 | 0.00 | 0.00 | 99 | ||
| 20260510072524 | 13 | 103 | 6.4 | 12.9 | 0.00 | 0.00 | 0.00 | 78 | |
| 20260510071553 | 13 | 91 | 6.4 | 14.5 | 0.00 | 0.00 | 0.00 | 76 | |
| 20260510070524 | 14 | 98 | 4.8 | 11.3 | 0.00 | 0.00 | 0.00 | 74 | |
| 20260510065532 | 14 | 98 | 4.8 | 9.7 | 0.00 | 0.00 | 0.00 | 71 | |
| 20260510064524 | 15 | 94 | 4.8 | 12.9 | 0.00 | 0.00 | 0.00 | 65 | |
| 20260510063552 | 15 | 63 | 1.6 | 8.0 | 0.00 | 0.00 | 0.00 | 61 | |
| 20260510062524 | 16 | 64 | 3.2 | 9.7 | 0.00 | 0.00 | 0.00 | 59 | |
| 20260510061532 | 17 | 51 | 3.2 | 12.9 | 0.00 | 0.00 | 0.00 | 57 | |
| 20260510061159 | 18 | 0.0 | 0.0 | 0.00 | 0.00 | 0.00 | 99 | ||
| 20260510060525 | 17 | 16 | 1.6 | 4.8 | 0.00 | 0.00 | 0.00 | 56 | |
| 20260510060054 | 18 | 0.0 | 0.0 | 0.00 | 0.00 | 0.00 | 99 | ||
| 20260510055533 | 17 | 35 | 1.6 | 8.0 | 0.00 | 0.00 | 0.00 | 56 | |
| 20260510055329 | 19 | 0.0 | 0.0 | 0.00 | 0.00 | 0.00 | 99 | ||
| 20260510054544 | 17 | 43 | 4.8 | 9.7 | 0.00 | 0.00 | 0.00 | 56 | |
| 20260510054031 | 20 | 0.0 | 0.0 | 0.00 | 0.00 | 0.00 | 99 | ||
| 20260510053532 | 17 | 61 | 1.6 | 4.8 | 0.00 | 0.00 | 0.00 | 55 | |
| 20260510053101 | 20 | 0.0 | 0.0 | 0.00 | 0.00 | 0.00 | 99 | ||
| 20260510052525 | 18 | 351 | 1.6 | 8.0 | 0.00 | 0.00 | 0.00 | 54 | |
| 20260510052029 | 20 | 0.0 | 0.0 | 0.00 | 0.00 | 0.00 | 99 | ||
| 20260510051534 | 18 | 42 | 3.2 | 8.0 | 0.00 | 0.00 | 0.00 | 54 | |
| 20260510051057 | 20 | 0.0 | 0.0 | 0.00 | 0.00 | 0.00 | 99 | ||
| 20260510050525 | 18 | 69 | 1.6 | 8.0 | 0.00 | 0.00 | 0.00 | 54 | |
| 20260510050026 | 21 | 0.0 | 0.0 | 0.00 | 0.00 | 0.00 | 99 | ||
| 20260510045612 | 18 | 289 | 1.6 | 4.8 | 0.00 | 0.00 | 0.00 | 54 | |
| 20260510044524 | 18 | 340 | 3.2 | 8.0 | 0.00 | 0.00 | 0.00 | 54 | |
| 20260510043533 | 18 | 13 | 3.2 | 9.7 | 0.00 | 0.00 | 0.00 | 52 | |
| 20260510042524 | 18 | 85 | 3.2 | 4.8 | 0.00 | 0.00 | 0.00 | 52 | |
| 20260510041532 | 17 | 322 | 1.6 | 8.0 | 0.00 | 0.00 | 0.00 | 54 | |
| 20260510040524 | 18 | 49 | 1.6 | 4.8 | 0.00 | 0.00 | 0.00 | 51 | |
| 20260510035532 | 17 | 289 | 3.2 | 8.0 | 0.00 | 0.00 | 0.00 | 53 | |
| 20260510034525 | 17 | 55 | 3.2 | 9.7 | 0.00 | 0.00 | 0.00 | 56 | |
| 20260510034052 | -17 | 0.0 | 0.0 | 0.00 | 0.00 | 0.00 | |||
| 20260510033553 | 17 | 51 | 3.2 | 9.7 | 0.00 | 0.00 | 0.00 | 55 | |
| 20260510032526 | 21 | 0.0 | 0.0 | 0.00 | 0.00 | 0.00 | 99 | ||
| 20260510031553 | 21 | 0.0 | 0.0 | 0.00 | 0.00 | 0.00 | 99 | ||
| 20260510031533 | 18 | 277 | 3.2 | 8.0 | 0.00 | 0.00 | 0.00 | 52 | |
| 20260510030524 | 21 | 0.0 | 0.0 | 0.00 | 0.00 | 0.00 | 99 | ||
| 20260510025532 | 17 | 314 | 4.8 | 9.7 | 0.00 | 0.00 | 0.00 | 55 | |
| 20260510024529 | 17 | 262 | 4.8 | 11.3 | 0.00 | 0.00 | 0.00 | 56 | |
| 20260510024521 | 21 | 0.0 | 0.0 | 0.00 | 0.00 | 0.00 | 99 | ||
| 20260510024025 | 21 | 0.0 | 0.0 | 0.00 | 0.00 | 0.00 | 99 | ||
| 20260510023533 | 17 | 242 | 1.6 | 4.8 | 0.00 | 0.00 | 0.00 | 54 | |
| 20260510022537 | 21 | 0.0 | 0.0 | 0.00 | 0.00 | 0.00 | 99 | ||
| 20260510022524 | 16 | 218 | 3.2 | 8.0 | 0.00 | 0.00 | 0.00 | 55 | |
| 20260510021533 | 16 | 201 | 1.6 | 4.8 | 0.00 | 0.00 | 0.00 | 56 | |
| 20260510021526 | 21 | 0.0 | 0.0 | 0.00 | 0.00 | 0.00 | 99 | ||
| 20260510020534 | 21 | 0.0 | 0.0 | 0.00 | 0.00 | 0.00 | 99 | ||
| 20260510020525 | 16 | 143 | 3.2 | 8.0 | 0.00 | 0.00 | 0.00 | 57 | |
| 20260510015542 | 21 | 0.0 | 0.0 | 0.00 | 0.00 | 0.00 | 99 | ||
| 20260510015532 | 16 | 166 | 3.2 | 8.0 | 0.00 | 0.00 | 0.00 | 57 | |
| 20260510014531 | 21 | 0.0 | 0.0 | 0.00 | 0.00 | 0.00 | 99 | ||
| 20260510014525 | 16 | 179 | 0.0 | 3.2 | 0.00 | 0.00 | 0.00 | 57 | |
| 20260510013552 | 16 | 167 | 1.6 | 4.8 | 0.00 | 0.00 | 0.00 | 55 | |
| 20260510013521 | 21 | 0.0 | 0.0 | 0.00 | 0.00 | 0.00 | 99 | ||
| 20260510012548 | 21 | 0.0 | 0.0 | 0.00 | 0.00 | 0.00 | 99 | ||
| 20260510012545 | 16 | 178 | 0.0 | 1.6 | 0.00 | 0.00 | 0.00 | 56 | |
| 20260510011615 | 20 | 0.0 | 0.0 | 0.00 | 0.00 | 0.00 | 99 | ||
| 20260510010544 | 20 | 0.0 | 0.0 | 0.00 | 0.00 | 0.00 | 99 | ||
| 20260510010525 | 15 | 184 | 0.0 | 3.2 | 0.00 | 0.00 | 0.00 | 58 | |
| 20260510005611 | 20 | 0.0 | 0.0 | 0.00 | 0.00 | 0.00 | 99 | ||
| 20260510005533 | 15 | 175 | 1.6 | 4.8 | 0.00 | 0.00 | 0.00 | 59 | |
| 20260510004545 | 15 | 166 | 3.2 | 4.8 | 0.00 | 0.00 | 0.00 | 61 | |
| 20260510004541 | 19 | 0.0 | 0.0 | 0.00 | 0.00 | 0.00 | 99 | ||
| 20260510003533 | 15 | 177 | 1.6 | 3.2 | 0.00 | 0.00 | 0.00 | 63 | |
| 20260510003531 | 20 | 0.0 | 0.0 | 0.00 | 0.00 | 0.00 | 99 | ||
| 20260510002525 | 15 | 173 | 1.6 | 4.8 | 0.00 | 0.00 | 0.00 | 64 | |
| 20260510002521 | 19 | 0.0 | 0.0 | 0.00 | 0.00 | 0.00 | 99 | ||
| 20260510001553 | 14 | 177 | 1.6 | 3.2 | 0.00 | 0.00 | 0.00 | 66 | |
| 20260510001549 | 19 | 0.0 | 0.0 | 0.00 | 0.00 | 0.00 | 99 | ||
| 20260510000536 | 17 | 0.0 | 0.0 | 0.00 | 0.00 | 0.00 | 99 | ||
| 20260510000524 | 14 | 177 | 1.6 | 3.2 | 0.00 | 0.00 | 0.00 | 67 | |
| 20260509235644 | 15 | 0.0 | 0.0 | 0.00 | 0.00 | 0.00 | 99 | ||
| 20260509235533 | 13 | 175 | 1.6 | 3.2 | 0.00 | 0.00 | 0.00 | 71 | |
| 20260509234533 | 15 | 0.0 | 0.0 | 0.00 | 0.00 | 0.00 | 99 | ||
| 20260509234526 | 12 | 178 | 1.6 | 4.8 | 0.00 | 0.00 | 0.00 | 76 | |
| 20260509233532 | 11 | 175 | 1.6 | 4.8 | 0.00 | 0.00 | 0.00 | 78 | |
| 20260509233523 | 14 | 0.0 | 0.0 | 0.00 | 0.00 | 0.00 | 99 | ||
| 20260509232530 | 13 | 0.0 | 0.0 | 0.00 | 0.00 | 0.00 | 99 | ||
| 20260509232526 | 10 | 174 | 1.6 | 3.2 | 0.00 | 0.00 | 0.00 | 80 | |
| 20260509231533 | 10 | 178 | 1.6 | 4.8 | 0.00 | 0.00 | 0.00 | 81 | |
| 20260509231520 | 12 | 0.0 | 0.0 | 0.00 | 0.00 | 0.00 | 99 | ||
| 20260509230606 | 12 | 0.0 | 0.0 | 0.00 | 0.00 | 0.00 | 99 | ||
| 20260509230525 | 10 | 176 | 1.6 | 3.2 | 0.00 | 0.00 | 0.00 | 80 | |
| 20260509225535 | 11 | 0.0 | 0.0 | 0.00 | 0.00 | 0.00 | 99 | ||
| 20260509225533 | 10 | 184 | 1.6 | 3.2 | 0.00 | 0.00 | 0.00 | 81 | |
| 20260509224543 | 11 | 0.0 | 0.0 | 0.00 | 0.00 | 0.00 | 99 | ||
| 20260509224525 | 9 | 181 | 1.6 | 3.2 | 0.00 | 0.00 | 0.00 | 82 | |
| 20260509224201 | 10 | 0.0 | 0.0 | 0.00 | 0.00 | 0.00 | 99 | ||
| 20260509223533 | 8 | 189 | 1.6 | 3.2 | 0.00 | 0.00 | 0.00 | 84 | |
| 20260509222524 | 8 | 185 | 1.6 | 3.2 | 0.00 | 0.00 | 0.00 | 86 | |
| 20260509222522 | 9 | 0.0 | 0.0 | 0.00 | 0.00 | 0.00 | 99 | ||
| 20260509221553 | 7 | 185 | 0.0 | 3.2 | 0.00 | 0.00 | 0.00 | 89 | |
| 20260509221550 | 8 | 0.0 | 0.0 | 0.00 | 0.00 | 0.00 | 99 | ||
| 20260509220537 | 7 | 0.0 | 0.0 | 0.00 | 0.00 | 0.00 | 99 | ||
| 20260509220525 | 6 | 183 | 1.6 | 3.2 | 0.00 | 0.00 | 0.00 | 90 | |
| 20260509215532 | 6 | 184 | 1.6 | 4.8 | 0.00 | 0.00 | 0.00 | 92 | |
| 20260509215527 | 6 | 0.0 | 0.0 | 0.00 | 0.00 | 0.00 | 99 | ||
| 20260509214535 | 6 | 0.0 | 0.0 | 0.00 | 0.00 | 0.00 | 99 | ||
| 20260509214524 | 5 | 183 | 1.6 | 8.0 | 0.00 | 0.00 | 0.00 | 95 | |
| 20260509213533 | 5 | 188 | 1.6 | 3.2 | 0.00 | 0.00 | 0.00 | 97 | |
| 20260509212525 | 4 | 187 | 1.6 | 3.2 | 0.00 | 0.00 | 0.00 | 97 | |
| 20260509211533 | 4 | 184 | 1.6 | 4.8 | 0.00 | 0.00 | 0.00 | 97 | |
| 20260509210546 | 3 | 184 | 1.6 | 4.8 | 0.00 | 0.00 | 0.00 | 97 | |
| 20260509205553 | 3 | 188 | 1.6 | 3.2 | 0.00 | 0.00 | 0.00 | 97 | |
| 20260509205023 | 3 | 0.0 | 0.0 | 0.00 | 0.00 | 0.00 | 99 | ||
| 20260509204546 | 3 | 188 | 1.6 | 3.2 | 0.00 | 0.00 | 0.00 | 97 | |
| 20260509204030 | 3 | 0.0 | 0.0 | 0.00 | 0.00 | 0.00 | 99 | ||
| 20260509203533 | 3 | 188 | 1.6 | 3.2 | 0.00 | 0.00 | 0.00 | 97 | |
| 20260509203040 | 3 | 0.0 | 0.0 | 0.00 | 0.00 | 0.00 | 99 | ||
| 20260509202525 | 3 | 188 | 3.2 | 3.2 | 0.00 | 0.00 | 0.00 | 97 | |
| 20260509202027 | 3 | 0.0 | 0.0 | 0.00 | 0.00 | 0.00 | 99 | ||
| 20260509201554 | 3 | 185 | 3.2 | 4.8 | 0.00 | 0.00 | 0.00 | 97 | |
| 20260509201036 | 3 | 0.0 | 0.0 | 0.00 | 0.00 | 0.00 | 99 | ||
| 20260509200525 | 3 | 187 | 1.6 | 3.2 | 0.00 | 0.00 | 0.00 | 96 | |
| 20260509200025 | 3 | 0.0 | 0.0 | 0.00 | 0.00 | 0.00 | 99 | ||
| 20260509195533 | 3 | 186 | 1.6 | 4.8 | 0.00 | 0.00 | 0.00 | 96 | |
| 20260509195033 | 3 | 0.0 | 0.0 | 0.00 | 0.00 | 0.00 | 99 | ||
| 20260509194545 | 3 | 188 | 1.6 | 3.2 | 0.00 | 0.00 | 0.00 | 96 | |
| 20260509194022 | 4 | 0.0 | 0.0 | 0.00 | 0.00 | 0.00 | 99 | ||
| 20260509193553 | 3 | 186 | 3.2 | 3.2 | 0.00 | 0.00 | 0.00 | 95 | |
| 20260509193029 | 4 | 0.0 | 0.0 | 0.00 | 0.00 | 0.00 | 99 | ||
| 20260509192545 | 4 | 183 | 3.2 | 4.8 | 0.00 | 0.00 | 0.00 | 95 | |
| 20260509192019 | 5 | 0.0 | 0.0 | 0.00 | 0.00 | 0.00 | 99 | ||
| 20260509191553 | 4 | 186 | 3.2 | 4.8 | 0.00 | 0.00 | 0.00 | 95 | |
| 20260509191027 | 5 | 0.0 | 0.0 | 0.00 | 0.00 | 0.00 | 99 | ||
| 20260509190524 | 5 | 188 | 1.6 | 1.6 | 0.00 | 0.00 | 0.00 | 95 | |
| 20260509190035 | 5 | 0.0 | 0.0 | 0.00 | 0.00 | 0.00 | 99 | ||
| 20260509185614 | 5 | 184 | 3.2 | 4.8 | 0.00 | 0.00 | 0.00 | 96 | |
| 20260509185024 | 5 | 0.0 | 0.0 | 0.00 | 0.00 | 0.00 | 99 | ||
| 20260509184545 | 4 | 185 | 3.2 | 4.8 | 0.00 | 0.00 | 0.00 | 96 | |
| 20260509184032 | 5 | 0.0 | 0.0 | 0.00 | 0.00 | 0.00 | 99 | ||
| 20260509183533 | 5 | 188 | 3.2 | 8.0 | 0.00 | 0.00 | 0.00 | 96 | |
| 20260509183022 | 5 | 0.0 | 0.0 | 0.00 | 0.00 | 0.00 | 99 | ||
| 20260509182526 | 4 | 187 | 3.2 | 4.8 | 0.00 | 0.00 | 0.00 | 97 | |
| 20260509182030 | 5 | 0.0 | 0.0 | 0.00 | 0.00 | 0.00 | 99 | ||
| 20260509181532 | 4 | 186 | 3.2 | 4.8 | 0.00 | 0.00 | 0.00 | 97 | |
| 20260509181038 | 5 | 0.0 | 0.0 | 0.00 | 0.00 | 0.00 | 99 | ||
| 20260509180525 | 4 | 186 | 3.2 | 4.8 | 0.00 | 0.00 | 0.00 | 97 | |
| 20260509180026 | 5 | 0.0 | 0.0 | 0.00 | 0.00 | 0.00 | 99 | ||
| 20260509175533 | 4 | 186 | 3.2 | 4.8 | 0.00 | 0.00 | 0.00 | 97 | |
| 20260509175054 | 5 | 0.0 | 0.0 | 0.00 | 0.00 | 0.00 | 99 | ||
| 20260509174525 | 4 | 187 | 3.2 | 4.8 | 0.00 | 0.00 | 0.00 | 97 | |
| 20260509174024 | 4 | 0.0 | 0.0 | 0.00 | 0.00 | 0.00 | 99 | ||
| 20260509173533 | 4 | 189 | 1.6 | 3.2 | 0.00 | 0.00 | 0.00 | 97 | |
| 20260509173032 | 4 | 0.0 | 0.0 | 0.00 | 0.00 | 0.00 | 99 | ||
| 20260509172526 | 3 | 188 | 3.2 | 4.8 | 0.00 | 0.00 | 0.00 | 97 | |
| 20260509172021 | 4 | 0.0 | 0.0 | 0.00 | 0.00 | 0.00 | 99 | ||
| 20260509171533 | 3 | 188 | 1.6 | 3.2 | 0.00 | 0.00 | 0.00 | 97 | |
| 20260509171029 | 4 | 0.0 | 0.0 | 0.00 | 0.00 | 0.00 | 99 | ||
| 20260509170525 | 4 | 188 | 1.6 | 3.2 | 0.00 | 0.00 | 0.00 | 97 | |
| 20260509170037 | 4 | 0.0 | 0.0 | 0.00 | 0.00 | 0.00 | 99 | ||
| 20260509165533 | 4 | 188 | 0.0 | 1.6 | 0.00 | 0.00 | 0.00 | 97 | |
| 20260509165026 | 4 | 0.0 | 0.0 | 0.00 | 0.00 | 0.00 | 99 | ||
| 20260509164605 | 4 | 189 | 1.6 | 3.2 | 0.00 | 0.00 | 0.00 | 96 | |
| 20260509164034 | 5 | 0.0 | 0.0 | 0.00 | 0.00 | 0.00 | 99 | ||
| 20260509163553 | 4 | 189 | 0.0 | 1.6 | 0.00 | 0.00 | 0.00 | 96 | |
| 20260509163023 | 5 | 0.0 | 0.0 | 0.00 | 0.00 | 0.00 | 99 | ||
| 20260509162525 | 4 | 188 | 0.0 | 1.6 | 0.00 | 0.00 | 0.00 | 96 | |
| 20260509162031 | 5 | 0.0 | 0.0 | 0.00 | 0.00 | 0.00 | 99 | ||
| 20260509161533 | 4 | 189 | 0.0 | 1.6 | 0.00 | 0.00 | 0.00 | 96 | |
| 20260509161141 | 5 | 0.0 | 0.0 | 0.00 | 0.00 | 0.00 | 99 | ||
| 20260509160545 | 4 | 0.0 | 0.0 | 0.00 | 0.00 | 0.00 | 96 | ||
| 20260509160108 | 5 | 0.0 | 0.0 | 0.00 | 0.00 | 0.00 | 99 | ||
| 20260509155533 | 4 | 191 | 0.0 | 1.6 | 0.00 | 0.00 | 0.00 | 96 | |
| 20260509155036 | 4 | 0.0 | 0.0 | 0.00 | 0.00 | 0.00 | 99 | ||
| 20260509154526 | 4 | 188 | 0.0 | 3.2 | 0.00 | 0.00 | 0.00 | 95 | |
| 20260509154025 | 4 | 0.0 | 0.0 | 0.00 | 0.00 | 0.00 | 99 | ||
| 20260509153533 | 4 | 0.0 | 0.0 | 0.00 | 0.00 | 0.00 | 94 | ||
| 20260509153033 | 5 | 0.0 | 0.0 | 0.00 | 0.00 | 0.00 | 99 | ||
| 20260509152525 | 5 | 185 | 0.0 | 3.2 | 0.00 | 0.00 | 0.00 | 94 | |
| 20260509152022 | 5 | 0.0 | 0.0 | 0.00 | 0.00 | 0.00 | 99 | ||
| 20260509151533 | 5 | 187 | 1.6 | 3.2 | 0.00 | 0.00 | 0.00 | 94 | |
| 20260509151032 | 5 | 0.0 | 0.0 | 0.00 | 0.00 | 0.00 | 99 | ||
| 20260509150525 | 5 | 187 | 0.0 | 1.6 | 0.00 | 0.00 | 0.00 | 94 | |
| 20260509150020 | 5 | 0.0 | 0.0 | 0.00 | 0.00 | 0.00 | 99 | ||
| 20260509145533 | 5 | 184 | 1.6 | 3.2 | 0.00 | 0.00 | 0.00 | 94 | |
| 20260509145048 | 5 | 0.0 | 0.0 | 0.00 | 0.00 | 0.00 | 99 | ||
| 20260509144525 | 5 | 184 | 1.6 | 4.8 | 0.00 | 0.00 | 0.00 | 94 | |
| 20260509144036 | 5 | 0.0 | 0.0 | 0.00 | 0.00 | 0.00 | 99 | ||
| 20260509143533 | 5 | 185 | 3.2 | 4.8 | 0.00 | 0.00 | 0.00 | 94 | |
| 20260509143025 | 5 | 0.0 | 0.0 | 0.00 | 0.00 | 0.00 | 99 | ||
| 20260509142525 | 5 | 188 | 1.6 | 3.2 | 0.00 | 0.00 | 0.00 | 94 | |
| 20260509142033 | 5 | 0.0 | 0.0 | 0.00 | 0.00 | 0.00 | 99 | ||
| 20260509141533 | 5 | 188 | 1.6 | 3.2 | 0.00 | 0.00 | 0.00 | 93 | |
| 20260509141022 | 6 | 0.0 | 0.0 | 0.00 | 0.00 | 0.00 | 99 | ||
| 20260509140525 | 5 | 189 | 0.0 | 1.6 | 0.00 | 0.00 | 0.00 | 93 | |
| 20260509140053 | 6 | 0.0 | 0.0 | 0.00 | 0.00 | 0.00 | 99 | ||
| 20260509135533 | 5 | 189 | 1.6 | 3.2 | 0.00 | 0.00 | 0.00 | 93 | |
| 20260509135020 | 6 | 0.0 | 0.0 | 0.00 | 0.00 | 0.00 | 99 | ||
| 20260509134544 | 5 | 190 | 1.6 | 3.2 | 0.00 | 0.00 | 0.00 | 92 | |
| 20260509134027 | 6 | 0.0 | 0.0 | 0.00 | 0.00 | 0.00 | 99 | ||
| 20260509133532 | 6 | 0.0 | 0.0 | 0.00 | 0.00 | 0.00 | 92 | ||
| 20260509133056 | 6 | 0.0 | 0.0 | 0.00 | 0.00 | 0.00 | 99 | ||
| 20260509132524 | 5 | 195 | 1.6 | 1.6 | 0.00 | 0.00 | 0.00 | 93 | |
| 20260509132024 | 5 | 0.0 | 0.0 | 0.00 | 0.00 | 0.00 | 99 | ||
| 20260509131533 | 5 | 193 | 0.0 | 3.2 | 0.00 | 0.00 | 0.00 | 92 | |
| 20260509131053 | 6 | 0.0 | 0.0 | 0.00 | 0.00 | 0.00 | 99 |